• In France
  • List of Countries
  • For 7 days
  • Water Temperature
  • Satellite Maps
  • Weather Map
  • Weather Widgets
  • user-avatar
    Login

    Hourly Weather Kriviny

    Today, 17 July, Tuesday

    Time Temperature Precipitation Wind Pressure Humidity
    00:00 +19°C° 0 mm 2 mps 739 mmHg 89%
    01:00 +19°C° 0 mm 2 mps 739 mmHg 90%
    02:00 +19°C° 0 mm 2 mps 738 mmHg 95%
    03:00 +19°C° 0.1 mm 2 mps 738 mmHg 94%
    04:00 +19°C° 0.1 mm 3 mps 738 mmHg 94%
    05:00 +19°C° 0.1 mm 3 mps 738 mmHg 94%
    06:00 +20°C° 0 mm 3 mps 738 mmHg 88%
    07:00 +22°C° 0 mm 4 mps 738 mmHg 83%
    08:00 +23°C° 0 mm 4 mps 739 mmHg 75%
    09:00 +26°C° 0 mm 4 mps 739 mmHg 69%
    10:00 +27°C° 0 mm 5 mps 738 mmHg 63%
    11:00 +28°C° 0 mm 5 mps 738 mmHg 56%
    12:00 +28°C° 0.2 mm 5 mps 738 mmHg 58%
    13:00 +28°C° 0.2 mm 5 mps 738 mmHg 59%
    14:00 +29°C° 0.2 mm 5 mps 738 mmHg 61%
    15:00 +28°C° 0.2 mm 5 mps 738 mmHg 61%
    16:00 +28°C° 0.2 mm 4 mps 738 mmHg 61%
    17:00 +28°C° 0.2 mm 4 mps 738 mmHg 62%
    18:00 +26°C° 0.1 mm 4 mps 738 mmHg 68%
    19:00 +25°C° 0.1 mm 3 mps 738 mmHg 74%
    20:00 +22°C° 0.1 mm 3 mps 738 mmHg 80%
    21:00 +21°C° 0 mm 3 mps 738 mmHg 81%
    22:00 +21°C° 0 mm 3 mps 738 mmHg 82%
    23:00 +20°C° 0 mm 3 mps 738 mmHg 82%

    Tomorrow, 18 July, Wednesday

    Time Temperature Precipitation Wind Pressure Humidity
    00:00 +19°C° 0 mm 3 mps 738 mmHg 83%
    01:00 +19°C° 0 mm 3 mps 738 mmHg 83%
    02:00 +18°C° 0 mm 3 mps 738 mmHg 83%
    03:00 +18°C° 0 mm 3 mps 738 mmHg 83%
    04:00 +18°C° 0 mm 3 mps 737 mmHg 83%
    05:00 +18°C° 0 mm 3 mps 737 mmHg 83%
    06:00 +19°C° 0 mm 3 mps 737 mmHg 78%
    07:00 +21°C° 0 mm 4 mps 737 mmHg 72%
    08:00 +22°C° 0 mm 4 mps 737 mmHg 67%
    09:00 +23°C° 0 mm 4 mps 737 mmHg 64%
    10:00 +26°C° 0 mm 5 mps 737 mmHg 60%
    11:00 +27°C° 0 mm 5 mps 737 mmHg 57%
    12:00 +26°C° 1.1 mm 5 mps 737 mmHg 63%
    13:00 +26°C° 1.1 mm 4 mps 736 mmHg 69%
    14:00 +26°C° 1.1 mm 4 mps 736 mmHg 75%
    15:00 +25°C° 0.5 mm 4 mps 736 mmHg 73%
    16:00 +25°C° 0.5 mm 4 mps 736 mmHg 71%
    17:00 +23°C° 0.5 mm 4 mps 736 mmHg 69%
    18:00 +22°C° 0 mm 4 mps 736 mmHg 73%
    19:00 +21°C° 0 mm 3 mps 736 mmHg 77%
    20:00 +20°C° 0 mm 3 mps 736 mmHg 80%
    21:00 +19°C° 0.4 mm 3 mps 736 mmHg 85%
    22:00 +19°C° 0.4 mm 3 mps 736 mmHg 90%
    23:00 +18°C° 0.4 mm 3 mps 736 mmHg 94%

    Day after tomorrow, 19 July, Thursday

    Time Temperature Precipitation Wind Pressure Humidity
    00:00 +18°C° 0.4 mm 3 mps 736 mmHg 95%
    01:00 +18°C° 0.4 mm 3 mps 736 mmHg 96%
    02:00 +18°C° 0.4 mm 3 mps 736 mmHg 97%
    03:00 +18°C° 0.5 mm 3 mps 736 mmHg 97%
    04:00 +18°C° 0.5 mm 3 mps 736 mmHg 97%
    05:00 +18°C° 0.5 mm 3 mps 736 mmHg 97%
    06:00 +18°C° 0.5 mm 3 mps 736 mmHg 97%
    07:00 +19°C° 0.5 mm 3 mps 736 mmHg 96%
    08:00 +19°C° 0.5 mm 3 mps 736 mmHg 95%
    09:00 +19°C° 0 mm 3 mps 736 mmHg 93%
    10:00 +20°C° 0 mm 3 mps 736 mmHg 92%
    11:00 +20°C° 0 mm 3 mps 736 mmHg 90%
    12:00 +21°C° 0.1 mm 4 mps 736 mmHg 83%
    13:00 +23°C° 0.1 mm 4 mps 736 mmHg 77%
    14:00 +25°C° 0.1 mm 4 mps 736 mmHg 70%
    15:00 +25°C° 0.2 mm 4 mps 736 mmHg 73%
    16:00 +25°C° 0.2 mm 3 mps 736 mmHg 75%
    17:00 +25°C° 0.2 mm 3 mps 736 mmHg 77%
    18:00 +24°C° 0 mm 3 mps 736 mmHg 81%
    19:00 +23°C° 0 mm 2 mps 736 mmHg 85%
    20:00 +21°C° 0 mm 2 mps 736 mmHg 88%
    21:00 +20°C° 0 mm 2 mps 736 mmHg 91%
    22:00 +20°C° 0 mm 2 mps 736 mmHg 94%
    23:00 +19°C° 0 mm 2 mps 736 mmHg 97%

    20 July, Friday

    Time Temperature Precipitation Wind Pressure Humidity
    00:00 +19°C° 0 mm 2 mps 735 mmHg 98%
    01:00 +19°C° 0 mm 2 mps 735 mmHg 98%
    02:00 +18°C° 0 mm 2 mps 735 mmHg 98%
    03:00 +19°C° 0 mm 3 mps 735 mmHg 98%
    04:00 +19°C° 0 mm 3 mps 735 mmHg 97%
    05:00 +19°C° 0 mm 3 mps 735 mmHg 97%
    06:00 +19°C° 0.4 mm 3 mps 735 mmHg 95%
    07:00 +20°C° 0.4 mm 3 mps 735 mmHg 94%
    08:00 +20°C° 0.4 mm 4 mps 735 mmHg 93%
    09:00 +20°C° 1 mm 4 mps 735 mmHg 91%
    10:00 +21°C° 1 mm 4 mps 735 mmHg 90%
    11:00 +21°C° 1 mm 4 mps 735 mmHg 88%
    12:00 +22°C° 0.8 mm 4 mps 735 mmHg 88%
    13:00 +22°C° 0.8 mm 4 mps 735 mmHg 88%
    14:00 +23°C° 0.8 mm 4 mps 735 mmHg 88%
    15:00 +23°C° 0.7 mm 4 mps 735 mmHg 87%
    16:00 +23°C° 0.7 mm 4 mps 735 mmHg 87%
    17:00 +24°C° 0.7 mm 3 mps 735 mmHg 86%
    18:00 +22°C° 0.2 mm 3 mps 735 mmHg 88%
    19:00 +21°C° 0.2 mm 3 mps 735 mmHg 90%
    20:00 +21°C° 0.2 mm 3 mps 735 mmHg 92%
    21:00 +20°C° 0 mm 2 mps 735 mmHg 93%
    22:00 +19°C° 0 mm 2 mps 735 mmHg 95%
    23:00 +18°C° 0 mm 2 mps 735 mmHg 96%

    21 July, Saturday

    Time Temperature Precipitation Wind Pressure Humidity
    00:00 +18°C° 0 mm 2 mps 735 mmHg 97%
    01:00 +18°C° 0 mm 2 mps 735 mmHg 98%
    02:00 +17°C° 0 mm 2 mps 735 mmHg 98%
    03:00 +17°C° 0.3 mm 2 mps 735 mmHg 98%
    04:00 +17°C° 0.3 mm 2 mps 735 mmHg 98%
    05:00 +17°C° 0.3 mm 2 mps 735 mmHg 98%
    06:00 +18°C° 0.3 mm 2 mps 735 mmHg 96%
    07:00 +19°C° 0.3 mm 2 mps 735 mmHg 95%
    08:00 +19°C° 0.3 mm 2 mps 735 mmHg 93%
    09:00 +20°C° 0.2 mm 2 mps 735 mmHg 91%
    10:00 +21°C° 0.2 mm 2 mps 735 mmHg 89%
    11:00 +23°C° 0.2 mm 2 mps 735 mmHg 86%
    12:00 +23°C° 0.5 mm 1 mps 735 mmHg 86%
    13:00 +24°C° 0.5 mm 1 mps 735 mmHg 85%
    14:00 +24°C° 0.5 mm 1 mps 735 mmHg 85%
    15:00 +25°C° 0.8 mm 1 mps 734 mmHg 85%
    16:00 +25°C° 0.8 mm 1 mps 734 mmHg 85%
    17:00 +25°C° 0.8 mm 1 mps 734 mmHg 85%
    18:00 +24°C° 1.1 mm 1 mps 734 mmHg 88%
    19:00 +23°C° 1.1 mm 1 mps 734 mmHg 92%
    20:00 +22°C° 1.1 mm 1 mps 734 mmHg 95%
    21:00 +21°C° 0.7 mm 1 mps 733 mmHg 96%
    22:00 +21°C° 0.7 mm 1 mps 733 mmHg 97%
    23:00 +20°C° 0.7 mm 1 mps 733 mmHg 98%

    22 July, Sunday

    Time Temperature Precipitation Wind Pressure Humidity
    00:00 +20°C° 0.4 mm 1 mps 733 mmHg 98%
    01:00 +20°C° 0.4 mm 1 mps 733 mmHg 98%
    02:00 +19°C° 0.4 mm 1 mps 733 mmHg 98%
    03:00 +20°C° 0.7 mm 1 mps 733 mmHg 98%
    04:00 +20°C° 0.7 mm 1 mps 732 mmHg 98%
    05:00 +20°C° 0.7 mm 1 mps 732 mmHg 98%
    06:00 +21°C° 0.1 mm 1 mps 732 mmHg 97%
    07:00 +19°C° 0.1 mm 0 mps 732 mmHg 95%
    08:00 +20°C° 0.1 mm 0 mps 732 mmHg 94%
    09:00 +23°C° 0.3 mm 1 mps 732 mmHg 91%
    10:00 +23°C° 0.3 mm 1 mps 732 mmHg 89%
    11:00 +24°C° 0.3 mm 1 mps 732 mmHg 87%
    12:00 +24°C° 0.2 mm 1 mps 732 mmHg 84%
    13:00 +25°C° 0.2 mm 1 mps 732 mmHg 80%
    14:00 +26°C° 0.2 mm 1 mps 732 mmHg 77%
    15:00 +25°C° 0.3 mm 1 mps 732 mmHg 78%
    16:00 +25°C° 0.3 mm 1 mps 732 mmHg 79%
    17:00 +25°C° 0.3 mm 1 mps 732 mmHg 80%
    18:00 +24°C° 0.7 mm 2 mps 732 mmHg 84%
    19:00 +23°C° 0.7 mm 2 mps 732 mmHg 89%
    20:00 +21°C° 0.7 mm 2 mps 732 mmHg 94%
    21:00 +20°C° 0.6 mm 2 mps 732 mmHg 95%
    22:00 +20°C° 0.6 mm 2 mps 732 mmHg 96%
    23:00 +19°C° 0.6 mm 3 mps 732 mmHg 98%
    Show more